www.pogodaiklimat.ru

АРХИВ ПОГОДЫ в Далласе

Время (UTC), дата Ветер
(напр.,м/с)
 
Видим.   Явления Облачность Т
(С)
Тd
(С)
f
(%)
Тe
(С)
Тes
(С)
Комфортность

P
(гПа)

Po
(гПа)
Тmin
(С)
Tmax
(С)
R
(мм)
SD
(см)
13:53 24.02 ЮВ  13 км  слабый дождь  10/8 420 м
[средняя] 
+15.0  +14.0  94  +12  +12    1008.1  988.8         
14:03 24.02 ЮВ  7
{11} 
14 км  слабый дождь  8/8 210 м
[средняя] 
+14.4  +13.3  93  +12  +12      989.1         
14:22 24.02 ЮВ  14 км    10/8 90 м
[средняя] 
+13.9  +13.3  96  +12  +12      988.8         
14:41 24.02 Ю  400 м  дымка  10/10 90 м  +14.4  +13.3  93  +12  +12      988.4         
14:53 24.02 Ю  400 м  дымка  10/10 60 м  +14.4  +13.3  93  +13  +13    1008.4  989.1      14.0   
15:53 24.02 ЮЗ  400 м  дымка  10/10 90 м  +15.6  +14.4  93  +14  +14    1009.0  989.8         
16:02 24.02 ЮЗ  2 км  гроза, дымка  10/10 90 м  +15.6  +15.0  96  +14  +14      989.4         
16:10 24.02 ЮЗ  2 км  слабый дождь, дымка  10/10 90 м  +16.1  +15.0  93  +15  +15      989.1         
16:25 24.02 З  2 км  гроза с дождем, дымка  10/10 90 м  +16.1  +15.0  93  +14  +14               
16:41 24.02 СЗ  11
{16} 
2 км  гроза с сильным дождем, дымка  8/8 90 м  +12.8  +11.7  93  +9  +9      990.1         
16:53 24.02 СЗ  9
{14} 
2 км  слабый дождь, дымка  10/10 150 м  +11.1  +9.4  89  +7  +7    1009.8           
17:04 24.02 З  8
{14} 
5 км  гроза со слабым дождем, дымка  10/10 150 м  +10.6  +8.9  89  +7  +7               
17:09 24.02 СЗ  10
{13} 
2 км  гроза с сильным дождем, дымка  8/8 150 м  +10.6  +8.9  89  +6  +6      990.8         
17:47 24.02 З  16 км  слабый дождь  10/10 360 м  +10.0  +8.0  87  +6  +6      991.4         
17:53 24.02 СЗ  16 км  слабый дождь  10/10 360 м  +10.0  +8.3  89  +6  +6    1011.0  991.4  +8.9  +17.8     
17:56 24.02 СЗ  16 км  гроза  10/10 360 м  +10.0  +8.3  89  +6  +6      991.4         
18:05 24.02 СЗ  16 км    8/8 210 м  +10.6  +8.9  89  +7  +8      991.8         
18:43 24.02 СЗ  16 км    8/8 360 м  +12.0  +9.0  82  +9  +9      991.4         
18:53 24.02 СЗ  16 км    8/8 360 м
[верхняя] 
+12.2  +9.4  83  +9  +10    1017.5  991.8         
19:20 24.02 З  16 км    8/5 360 м
[верхняя] 
+13.0  +10.0  82  +10  +12      991.4         
19:53 24.02 СЗ  16 км    8/5 720 м
[верхняя] 
+15.0  +11.0  77  +13  +14    1010.4  991.1         
20:53 24.02 СЗ  7
{9} 
16 км    8/2 720 м
[верхняя] 
+16.1  +9.4  64  +15  +16      991.1         
21:53 24.02 СЗ  16 км    8/2 1260 м
[верхняя] 
+17.0  +8.0  55  +16  +17    1010.4  991.1         
22:53 24.02 СЗ  16 км    8/2 1200 м
[верхняя] 
+18.0  +8.0  52  +17  +18    1010.9  991.8         
23:53 24.02 СЗ  16 км    8/2 1200 м
[средняя верхняя] 
+16.1  +7.2  56  +15  +16    1011.9  992.4  +10.0  +18.3     
00:53 25.02 С  16 км    8/0 2400 м
[средняя верхняя] 
+14.0  +7.0  63  +13  +13    1012.4  992.8         
01:53 25.02 СВ  16 км    8/0 7500 м
[верхняя] 
+11.1  +7.2  77  +10  +10    1012.9  993.4         
02:53 25.02 В  16 км    8/0 7500 м
[верхняя] 
+12.0  +8.0  76  +11  +11    1013.6  994.1         
03:53 25.02 штиль  16 км    8/0 7500 м
[верхняя] 
+13.3  +7.2  67  +13  +13    1014.3  994.7         
04:53 25.02 штиль  16 км    8/0 7500 м
[верхняя] 
+11.1  +6.7  74  +11  +11    1015.2  995.7         
05:53 25.02 С  16 км    5/0 7500 м
[верхняя] 
+9.4  +6.1  80  +7  +7    1015.8  996.1         
06:53 25.02 С  16 км    2/0 7500 м
[верхняя] 
+8.9  +6.1  83  +7  +7    1016.2  996.4         
07:53 25.02 СВ  16 км    2/0 7500 м
[верхняя] 
+8.3  +6.1  86  +7  +7    1015.7  996.1         
08:53 25.02 С  16 км    2/0 7500 м
[верхняя] 
+7.2  +5.6  90  +4  +4    1015.5  996.1         
09:53 25.02 штиль  16 км    2/0 7500 м
[верхняя] 
+6.1  +4.4  89  +5  +5    1015.7  996.1         
10:53 25.02 С  14 км    2/0 7500 м
[верхняя] 
+5.6  +3.9  89  +4  +4    1015.9  996.4         
11:53 25.02 штиль  14 км    5/0 3600 м
[средняя верхняя] 
+6.0  +3.0  81  +5  +5    1016.3  996.7  +5.6  +9.4     
12:53 25.02 штиль  14 км    8/0 2400 м
[средняя верхняя] 
+5.6  +3.9  89  +5  +5    1017.9  998.1         
13:53 25.02 С  16 км    8/0 2400 м
[средняя верхняя] 
+8.0  +6.0  87  +5  +5    1017.1  997.4         
14:53 25.02 нст  16 км    8/0 2400 м
[средняя верхняя] 
+11.0  +7.0  76  +10  +11    1017.5  997.7         
15:53 25.02 В  16 км    8/0 4200 м
[средняя верхняя] 
+12.8  +7.8  72  +11  +13    1017.2  997.7         
16:53 25.02 ЮВ  16 км    8/0 3900 м
[средняя верхняя] 
+15.0  +8.0  63  +14  +16    1017.9  998.4         
17:53 25.02 ЮВ  16 км    5/0 3900 м
[средняя верхняя] 
+17.0  +8.0  55  +17  +22    1016.6  997.1  +5.0       
18:53 25.02 Ю  16 км    8/0 3600 м
[средняя] 
+17.8  +7.2  50  +17  +19    1016.2  996.7         
19:53 25.02 Ю  16 км    2/0 3600 м
[средняя] 
+19.4  +7.2  45  +20  +22    1014.8  995.4         
20:53 25.02 Ю  16 км    2/0 3600 м
[средняя] 
+20.0  +6.0  40  +21  +29  комфорт  1014.0  994.7         
21:53 25.02 ЮВ  16 км    2/2 1800 м
[средняя верхняя] 
+19.0  +6.0  43  +20  +24    1013.6  994.1         
22:53 25.02 Ю  16 км    2/2 1800 м
[средняя верхняя] 
+20.0  +7.0  43  +21  +23  комфорт  1014.1  994.7         

 

Местоположение метеостанции Dallas / Fort Worth International Airport: широта 32.8974 долгота -97.0220 высота над уровнем моря 165 м.

В архиве по умолчанию представлена погода в Далласе за последние 1-2 суток. Обновление информации о фактической погоде в базе происходит ежечасно! Архивные данные за месяц целиком и за предыдущие месяцы Вы можете получить, выбрав интересующий диапазон дат из раскрывающегося списка и нажав кнопку "Ввод!".

Внимание! Архив погоды МЕТАР в базе сайта в настоящее время начинается c 1 января 2013 г. Нет смысла пытаться выбрать более раннюю дату.

Внимание! Время в таблицах - всемирное. Для получения местного времени необходимо прибавить поправку, которая в Далласе равна -6 ч.

Ветер - указаны скорость ветра в м/с и направление, откуда дует ветер: С - северный, СВ - северо-восточный, В - восточный, ЮВ - юго-восточный, Ю - южный, ЮЗ - юго-западный, З - западный, СЗ - северо-западный.
Видимость - горизонтальная дальность видимости в метрах или километрах. При видимости от 1 до 10 км при отсутствии осадков обычно наблюдается дымка, при ухудшении видимости до 1 км и менее - туман. В сухую погоду видимость может ухудшаться дымом, пылью или мглою.
Атмосферные явления - указаны явления, наблюдавшиеся в указанный момент времени.
Облачность - указаны через наклонную черту верхняя и нижняя облачность в баллах и высота нижней границы облаков в метрах. Внимание: облачность, как и прочие метеорологические величины в США измеряются автоматическими метеостанциями. Указанные значения в баллах носят условный характер и показывают процент времени, в течение которого, в среднем, лазерный луч высотомера отражался от облаков обратно.
T - Температура воздуха - температура, измеренная на высоте 2 м над землей.
Td - Температура точки росы - температура, при понижении до которой содержащийся в воздухе водяной пар достигнет насыщения.
f - Относительная влажность воздуха - влажноcть воздуха, измеренная на высоте 2 м над землей.
Te - Эффективная температура - температура, которую ощущает одетый по сезону человек в тени. Характеристика душности погоды. При расчете учитывается влияние влажности воздуха и скорости ветра на теплоощущения человека.
Tes - Эффективная температура на солнце - температура, которую ощущает человек, с поправкой на солнечный нагрев. Характеристика знойности погоды. Зависит от высоты солнца над горизонтом, облачности и скорости ветра. Ночью, в пасмурную погоду, а также при ветре 12 м/с и более поправка равна нулю.
P - Атмосферное давление - приведенное к уровню моря атмосферное давление.
Po - Атмосферное давление - измеренное на уровне метеостанции атмосферное давление.
Tmin - Минимальная температура - минимум температуры воздуха на высоте 2 м над землей.
Tmax - Максимальная температура - максимум температуры воздуха на высоте 2 м над землей.
R - Количество осадков - Количество выпавших осадков за 3 или 6 часов, мм.
SD - Снежный покров - Высота снежного покрова, см.